[[{"header":{"parameterUnit":"m.s-1","parameterCategory":1,"la1":30.2991,"la2":30.254,"lo1":-89.0895,"lo2":-89.0444,"dy":0.0017,"dx":0.0017,"nx":28,"ny":28,"refTime":"2024-08-13T03:00:00:Z","depth":0,"parameterNumber":2,"parameterNumberName":"U-component_of_WINDS"},"data":[0,0,0,0,0,0,0,0,0,0,0,0,0,0,0,0,0,0,0,0,0,0,0,0,0,0,0,0,0,0,0,0,0,0,0,0,0,0,0,0,0,0,0,0,0,0,0,0,0,0,0,0,0,0,0,0,0,0,2.3687,2.3688,0,2.3792,2.3793,2.3794,2.375,2.3748,2.3745,2.3743,2.3852,2.3857,2.3862,0,0,0,0,0,0,0,0,0,0,0,0,0,2.3451,2.3456,2.3687,2.3689,2.369,2.3792,2.3793,2.3794,2.3751,2.3748,2.3744,2.3742,2.385,2.3857,2.3863,0,0,0,0,0,0,0,0,0,0,0,0,0,2.3555,2.3457,2.3687,2.368,2.3681,2.3791,2.3793,2.3795,2.3751,2.3747,2.3744,2.374,2.3848,2.3856,2.3864,2.3988,0,0,2.3888,2.3891,0,0,0,0,0,0,0,0,2.3549,2.3563,2.368,2.3681,2.3682,2.3754,2.375,2.386,2.3752,2.3725,2.3743,2.3738,2.3823,2.3832,2.386,2.3993,2.3998,2.3889,2.3893,2.3897,2.3899,0,0,0,0,0,0,0,2.3542,2.3559,2.3729,2.3682,2.3683,2.3672,2.3683,2.377,2.3794,2.3727,2.3724,2.3737,2.3822,2.3853,2.3863,2.4,2.3888,2.3895,2.39,2.3903,2.4239,2.4243,0,0,0,0,0,0,2.3534,2.3553,2.3725,2.3732,2.3604,2.368,2.3691,2.3735,2.3793,2.3798,2.374,2.3734,2.3841,2.3854,2.3866,2.4015,2.3897,2.3904,2.3909,2.4235,2.424,2.4244,0,0,0,0,0,0,2.3529,2.355,2.3721,2.3642,2.3663,2.3688,2.3737,2.3739,2.3769,2.3802,2.3806,2.3766,2.3839,2.3855,2.3958,2.4018,2.3908,2.3915,2.423,2.4236,2.4242,2.4314,0,0,0,0,0,0,2.3523,2.3548,2.3596,2.3643,2.3667,2.3811,2.374,2.3743,2.3782,2.3776,2.3829,2.3834,2.3837,2.3946,2.3966,2.4027,2.3921,2.4224,2.4233,2.424,2.4306,2.4322,2.4335,0,0,0,0,0,2.3514,2.3613,2.3598,2.3619,2.3726,2.3814,2.3828,2.3829,2.3788,2.3835,2.3857,2.3832,2.4008,2.3957,2.3979,2.4043,2.4221,2.423,2.4239,2.43,2.4319,2.4335,0,0,0,0,0,0,2.3573,2.3619,2.3603,2.372,2.3763,2.3807,2.3867,2.385,2.3907,2.3898,2.3898,2.3911,2.4016,2.404,2.3982,2.4166,2.4108,2.4122,2.4147,2.4165,2.418,2.4172,2.3928,0,0,0,0,0,2.3599,2.3666,2.3702,2.3802,2.3824,2.3842,2.388,2.3877,2.3923,2.3941,2.397,2.4016,2.4081,2.4125,2.4187,2.4309,2.432,2.4365,2.4379,2.4391,2.4403,2.4469,2.4489,2.4275,2.4275,2.4275,0,0,2.3654,2.3687,2.373,2.3814,2.3848,2.3917,2.3858,2.3934,2.3986,2.3953,2.4051,2.4074,2.4125,2.4238,2.4289,2.4261,2.4464,2.4403,2.4412,2.4418,2.4481,2.4501,2.4519,2.4281,2.428,2.4279,0,0,2.379,2.3822,2.3908,2.3942,2.3993,2.4004,2.4025,2.4071,2.4084,2.4183,2.4159,2.4221,2.4334,2.4371,2.4405,2.4554,2.4533,2.4574,2.465,2.4715,2.4731,2.4746,2.4799,2.4818,2.4586,2.4587,2.4587,0,2.3853,2.3956,2.3954,2.4032,2.407,2.4042,2.4129,2.4163,2.4232,2.4259,2.4226,2.4367,2.4399,2.452,2.4556,2.4585,2.4608,2.4569,2.4729,2.4744,2.4758,2.4808,2.4828,2.4591,2.4591,2.459,2.459,0,2.403,2.4102,2.4165,2.4231,2.4276,2.4358,2.4369,2.4415,2.4408,2.4422,2.4523,2.4561,2.463,2.4658,2.4653,2.4778,2.4759,2.4728,2.467,2.4783,2.483,2.485,2.4598,2.4596,2.4595,2.4594,0,0,2.4206,2.427,2.4293,2.4322,2.4376,2.4432,2.4513,2.4579,2.4618,2.4667,2.4735,2.483,2.4802,2.484,2.4838,2.4895,2.501,2.4856,2.4858,2.4883,2.515,2.5173,2.5196,2.4996,2.5,2.5003,2.5146,0,2.4346,2.4487,2.4487,2.4617,2.4684,2.4658,2.4728,2.4769,2.4785,2.4844,2.4861,2.4929,2.4886,2.4908,2.4963,2.4984,2.5063,2.4974,2.506,2.5063,2.5048,2.522,2.5245,2.5378,2.5164,2.5167,2.517,0,2.4528,2.4581,2.4718,2.4761,2.4789,2.4852,2.4913,2.4969,2.5015,2.5022,2.5064,2.5054,2.5136,2.5075,2.5189,2.5128,2.5163,2.5179,2.5184,2.5192,2.5123,2.5233,2.5421,2.5441,2.5199,2.5197,2.5195,0,2.4643,2.4748,2.4843,2.4869,2.4923,2.4967,2.4992,2.5034,2.5073,2.5127,2.5152,2.5215,2.5249,2.5298,2.5305,2.526,2.5419,2.5359,2.5428,2.5428,2.5463,2.546,2.5659,2.5485,2.5485,2.5485,2.5484,0,2.4799,2.4883,2.4895,2.4954,2.5048,2.5047,2.514,2.5161,2.5198,2.526,2.5242,2.5301,2.5306,2.5367,2.5373,2.5466,2.5482,2.549,2.5491,2.5492,2.5491,2.5515,2.5506,2.549,2.5489,2.5488,2.5487,0,2.4943,2.4954,2.5056,2.5098,2.511,2.5177,2.5213,2.5269,2.5282,2.5361,2.538,2.5401,2.5471,2.5483,2.5566,2.557,2.5681,2.5672,2.5665,2.5664,2.5733,2.5726,2.5953,2.5983,2.5791,2.5792,2.5794,0,2.5041,2.5105,2.5154,2.5193,2.522,2.5285,2.5325,2.5327,2.537,2.5426,2.5475,2.5543,2.5598,2.5712,2.5735,2.5799,2.5791,2.5866,2.5801,2.5799,2.5792,2.5788,2.5794,2.5879,2.5881,2.5883,2.5884,0,2.5215,2.5218,2.5276,2.5336,2.5384,2.5432,2.5477,2.5511,2.5519,2.5568,2.5639,2.5682,2.5766,2.5834,2.5897,2.5922,2.5905,2.5905,2.5924,2.5926,2.5919,2.5923,2.57,2.59,2.5898,2.5897,2.5896,2.5896,2.534,2.5395,2.5437,2.5503,2.5537,2.5579,2.5633,2.5653,2.5712,2.578,2.5778,2.5856,2.59,2.5982,2.6012,2.6073,2.6049,2.6077,2.6084,2.6091,2.6097,2.5909,2.6085,2.6084,2.6084,2.6083,2.6083,0,2.5513,2.5538,2.5598,2.5661,2.5713,2.5691,2.5739,2.5784,2.5853,2.5894,2.5948,2.603,2.6096,2.6124,2.6188,2.6232,2.6226,2.6249,2.6246,2.6252,2.6116,2.6092,2.6253,2.6253,2.6253,2.6253,2.6253,2.6253,2.5608,2.5701,2.5708,2.5817,2.5842,2.5918,2.5948,2.5987,2.602,2.6112,2.6166,2.6183,2.622,2.6287,2.6346,2.6352,2.6377,2.6404,2.6407,2.6279,2.6262,2.6245,2.6223,2.6409,2.641,2.6539,2.654,2.6541]},{"header":{"parameterUnit":"m.s-1","parameterCategory":1,"la1":30.2991,"la2":30.254,"lo1":-89.0895,"lo2":-89.0444,"dy":0.0017,"dx":0.0017,"nx":28,"ny":28,"refTime":"2024-08-13T03:00:00:Z","depth":0,"parameterNumber":3,"parameterNumberName":"V-component_of_WINDS"},"data":[0,0,0,0,0,0,0,0,0,0,0,0,0,0,0,0,0,0,0,0,0,0,0,0,0,0,0,0,0,0,0,0,0,0,0,0,0,0,0,0,0,0,0,0,0,0,0,0,0,0,0,0,0,0,0,0,0,0,3.4392,3.4392,0,3.4364,3.4364,3.4364,3.4266,3.4264,3.4262,3.426,3.4233,3.4234,3.4236,0,0,0,0,0,0,0,0,0,0,0,0,0,3.4364,3.4365,3.4393,3.4392,3.4392,3.4364,3.4364,3.4364,3.4266,3.4264,3.4261,3.4259,3.4233,3.4234,3.4236,0,0,0,0,0,0,0,0,0,0,0,0,0,3.436,3.4365,3.4393,3.434,3.4335,3.4364,3.4364,3.4363,3.4267,3.4264,3.426,3.4257,3.4232,3.4234,3.4236,3.4315,0,0,3.4242,3.4243,0,0,0,0,0,0,0,0,3.4361,3.4361,3.4348,3.4344,3.4338,3.4315,3.4344,3.4347,3.4268,3.4293,3.4259,3.4256,3.4263,3.4263,3.4265,3.4314,3.4313,3.4243,3.4244,3.4245,3.4245,0,0,0,0,0,0,0,3.4361,3.4362,3.4381,3.4348,3.4342,3.4318,3.4314,3.4344,3.4297,3.429,3.4283,3.4281,3.426,3.4263,3.4263,3.4312,3.4243,3.4244,3.4246,3.4246,3.4424,3.4427,0,0,0,0,0,0,3.4368,3.4363,3.4382,3.438,3.4341,3.4322,3.4317,3.4326,3.4296,3.4289,3.4284,3.4277,3.4261,3.4261,3.4262,3.4352,3.4245,3.4247,3.4248,3.4421,3.4425,3.4429,0,0,0,0,0,0,3.4368,3.4371,3.4383,3.437,3.4369,3.4326,3.4337,3.4327,3.433,3.4292,3.4283,3.4296,3.4258,3.4259,3.4302,3.435,3.4247,3.4249,3.4417,3.4422,3.4427,3.4533,0,0,0,0,0,0,3.4368,3.4372,3.4401,3.4371,3.4371,3.4424,3.4339,3.4329,3.4333,3.4324,3.43,3.4293,3.4256,3.43,3.4304,3.4351,3.4251,3.4412,3.4419,3.4425,3.4525,3.4541,3.4555,0,0,0,0,0,3.4367,3.4432,3.4403,3.4406,3.4406,3.4427,3.4427,3.4382,3.4338,3.4367,3.4342,3.4294,3.4344,3.4305,3.4309,3.4357,3.4409,3.4417,3.4425,3.4518,3.4538,3.4554,0,0,0,0,0,0,3.447,3.4428,3.4394,3.4452,3.4443,3.441,3.4446,3.4404,3.4409,3.44,3.4345,3.434,3.4391,3.4378,3.4336,3.4431,3.4368,3.4377,3.4438,3.4456,3.4471,3.4473,3.4253,0,0,0,0,0,3.4499,3.4519,3.4481,3.4535,3.4533,3.449,3.4498,3.4464,3.4453,3.445,3.4428,3.4421,3.4434,3.4444,3.4455,3.4523,3.4516,3.4557,3.4572,3.4585,3.4593,3.4628,3.4646,3.4455,3.4454,3.4454,0,0,3.456,3.4539,3.4555,3.4555,3.4545,3.4567,3.4488,3.4515,3.4531,3.4454,3.4493,3.4477,3.4465,3.452,3.4544,3.4511,3.4645,3.4595,3.4605,3.4607,3.4638,3.4656,3.4672,3.446,3.4459,3.4458,0,0,3.4681,3.4668,3.4711,3.4702,3.4687,3.4658,3.4669,3.4642,3.4628,3.4666,3.4609,3.4627,3.4652,3.4646,3.4646,3.4765,3.4721,3.477,3.4848,3.4883,3.4898,3.4911,3.4953,3.4969,3.4779,3.4779,3.4779,0,3.4759,3.4789,3.4739,3.4769,3.4771,3.4702,3.4745,3.4739,3.4729,3.4732,3.4696,3.4725,3.4712,3.4765,3.4794,3.4797,3.4807,3.4772,3.4899,3.4912,3.4923,3.4963,3.4979,3.4785,3.4784,3.4784,3.4783,0,3.4885,3.4907,3.4944,3.4935,3.4941,3.4978,3.4934,3.4946,3.4912,3.4887,3.4927,3.4909,3.4914,3.4924,3.4892,3.4973,3.4953,3.4909,3.4844,3.4949,3.4985,3.5,3.4794,3.4792,3.479,3.4788,0,0,3.5071,3.5033,3.5047,3.5042,3.502,3.5036,3.507,3.5075,3.5086,3.5082,3.5109,3.5132,3.509,3.5091,3.5056,3.5087,3.5182,3.5038,3.5037,3.5066,3.527,3.5303,3.5321,3.5152,3.5155,3.5157,3.5271,0,3.5187,3.5241,3.5197,3.526,3.528,3.5214,3.5243,3.5234,3.5212,3.5225,3.5201,3.5218,3.5162,3.5162,3.5189,3.5165,3.5222,3.5156,3.5178,3.5179,3.5182,3.534,3.5376,3.5484,3.5285,3.5287,3.5289,0,3.5329,3.5329,3.5394,3.5367,3.5373,3.5401,3.5401,3.5415,3.5403,3.5384,3.5385,3.5342,3.5374,3.5311,3.5355,3.5311,3.5317,3.5307,3.531,3.531,3.524,3.5345,3.5517,3.5533,3.5311,3.5309,3.5307,0,3.5457,3.5474,3.5515,3.5512,3.5482,3.5503,3.5491,3.5475,3.5481,3.5482,3.5484,3.549,3.5492,3.5497,3.5458,3.5416,3.5507,3.544,3.5493,3.5494,3.5515,3.5514,3.569,3.552,3.5519,3.5519,3.5519,0,3.559,3.5633,3.5572,3.5597,3.5643,3.5592,3.5638,3.562,3.5607,3.5627,3.5571,3.5592,3.5539,3.5554,3.5524,3.5564,3.5566,3.5553,3.5544,3.5558,3.5559,3.5561,3.5552,3.5523,3.5522,3.5522,3.5521,0,3.5742,3.5703,3.5743,3.5711,3.5703,3.5738,3.5711,3.5733,3.5707,3.5734,3.5738,3.5697,3.5713,3.5674,3.5684,3.5663,3.5722,3.5701,3.5726,3.5719,3.5774,3.5769,3.5957,3.5979,3.5795,3.5797,3.5798,0,3.5829,3.586,3.5831,3.584,3.5831,3.5847,3.5852,3.5803,3.5811,3.5799,3.5823,3.5833,3.5839,3.5867,3.5839,3.5847,3.5826,3.5891,3.5826,3.5839,3.5826,3.5825,3.5828,3.5904,3.5907,3.5909,3.591,0,3.5989,3.5968,3.5976,3.5978,3.5985,3.5984,3.598,3.5991,3.5939,3.595,3.5965,3.5969,3.5979,3.599,3.5992,3.598,3.5937,3.5931,3.5943,3.5957,3.597,3.5963,3.5762,3.5926,3.5925,3.5924,3.5923,3.5922,3.611,3.6134,3.6117,3.6128,3.612,3.6117,3.6136,3.6112,3.6122,3.6126,3.6096,3.6117,3.6104,3.6101,3.6094,3.611,3.6081,3.6099,3.6103,3.6109,3.6118,3.5968,3.6111,3.611,3.611,3.6109,3.6109,0,3.6266,3.6252,3.6263,3.6258,3.6267,3.6224,3.6217,3.6227,3.6246,3.6237,3.6243,3.626,3.6271,3.6244,3.625,3.6269,3.6249,3.6272,3.627,3.6268,3.6144,3.6132,3.6288,3.6288,3.6288,3.6288,3.6288,3.6288,3.6349,3.6387,3.6364,3.6397,3.6382,3.6401,3.6401,3.6398,3.639,3.6411,3.6419,3.6401,3.6385,3.639,3.6398,3.639,3.6395,3.6425,3.641,3.6294,3.6277,3.626,3.6249,3.6427,3.6427,3.6533,3.6534,3.6535]}]]